Shannon, Ireland

3:07 PM IST on August 27, 2016 (GMT +0100)
Shannon

Weather History for EINN - February, 2012

Change the Weather History Date:

Wednesday, February 29, 2012

  Actual Average Record
Temperature  
Mean Temperature 50 °F -  
Max Temperature 53 °F 51 °F 53 °F (2008)
Min Temperature 47 °F 38 °F 30 °F (2004)
Degree Days  
Heating Degree Days 15    
Moisture  
Dew Point 46 °F    
Average Humidity 83    
Maximum Humidity 93    
Minimum Humidity 62    
Precipitation  
Precipitation 0.00 in 0.09 in - ()
Sea Level Pressure  
Sea Level Pressure 30.08 in    
Wind  
Wind Speed 11 mph ()    
Max Wind Speed 23 mph    
Max Gust Speed -    
Visibility 6.5 miles    
Events      
Averages and records for this station are not official NWS values.
T = Trace of Precipitation, MM = Missing Value Source: Averaged Metar Reports

Daily Weather History Graph

Daily Weather History Graph

Search for Another Location

Airport or City:

Trip Planner

Search our weather history database for the weather conditions in past years. The results will help you decide how hot, cold, wet, or windy it might be!

Date:

Astronomy

Feb. 29, 2012 Rise Set
Actual Time 7:23 AM GMT 6:13 PM GMT
Civil Twilight 6:49 AM GMT 6:47 PM GMT
Nautical Twilight 6:09 AM GMT 7:27 PM GMT
Astronomical Twilight 5:29 AM GMT 8:07 PM GMT
Moon 10:02 AM GMT (2/29) 1:48 AM GMT (2/29)
Length of Visible Light 11h 58m
Length of Day
10h 49m
Waxing Crescent, 45% of the Moon is Illuminated
Feb 29
Waxing Crescent
Mar 1
First Quarter
Mar 8
Full
Mar 15
Last Quarter
Mar 22
New

Hourly Weather History & Observations

Time (GMT) Temp. Dew Point Humidity Pressure Visibility Wind Dir Wind Speed Gust Speed Precip Events Conditions
12:00 AM 49 °F 45 °F 83% 30.17 in 12 mi SE 6.7 mph - -   Mostly Cloudy
12:00 AM 48.2 °F 44.6 °F 87% 30.15 in 6.2 mi SE 6.9 mph - N/A   Mostly Cloudy
12:30 AM 48.2 °F 44.6 °F 87% 30.15 in 6.2 mi SE 10.4 mph - N/A   Mostly Cloudy
1:00 AM 48.2 °F 44.6 °F 87% 30.15 in 6.2 mi SE 11.5 mph - N/A   Mostly Cloudy
1:30 AM 48.2 °F 44.6 °F 87% 30.15 in 6.2 mi SE 10.4 mph - N/A   Mostly Cloudy
2:00 AM 48.2 °F 44.6 °F 87% 30.12 in 6.2 mi SSE 11.5 mph - N/A   Light Drizzle
2:30 AM 48.2 °F 46.4 °F 93% 30.12 in 6.2 mi SE 6.9 mph - N/A   Mostly Cloudy
3:00 AM 48.2 °F 46.4 °F 93% 30.12 in 6.2 mi SE 8.1 mph - N/A   Light Drizzle
3:30 AM 48.2 °F 46.4 °F 93% 30.09 in 6.2 mi SE 9.2 mph - N/A   Mostly Cloudy
4:00 AM 48.2 °F 46.4 °F 93% 30.09 in 6.2 mi SE 9.2 mph - N/A   Mostly Cloudy
4:30 AM 48.2 °F 46.4 °F 93% 30.09 in 6.2 mi SE 9.2 mph - N/A   Mostly Cloudy
5:00 AM 48.2 °F 46.4 °F 93% 30.09 in 6.2 mi SE 10.4 mph - N/A   Mostly Cloudy
5:30 AM 50.0 °F 46.4 °F 87% 30.09 in 6.2 mi SE 11.5 mph - N/A   Mostly Cloudy
6:00 AM 49 °F 47 °F 90% 30.09 in 12 mi SE 13.4 mph - -   Partly Cloudy
6:00 AM 50.0 °F 46.4 °F 87% 30.09 in 6.2 mi SE 13.8 mph - N/A   Mostly Cloudy
6:30 AM 50.0 °F 46.4 °F 87% 30.09 in 6.2 mi SSE 11.5 mph - N/A   Mostly Cloudy
7:00 AM 50.0 °F 46.4 °F 87% 30.09 in 6.2 mi SSE 8.1 mph - N/A   Mostly Cloudy
7:30 AM 50.0 °F 46.4 °F 87% 30.09 in 6.2 mi SE 11.5 mph - N/A   Mostly Cloudy
8:00 AM 50.0 °F 46.4 °F 87% 30.06 in 6.2 mi SE 10.4 mph - N/A   Mostly Cloudy
8:30 AM 50.0 °F 46.4 °F 87% 30.09 in 6.2 mi SSE 12.7 mph - N/A   Mostly Cloudy
9:30 AM 51.8 °F 46.4 °F 82% 30.09 in 6.2 mi SSE 9.2 mph - N/A   Mostly Cloudy
10:00 AM 51.8 °F 46.4 °F 82% 30.09 in 6.2 mi South 8.1 mph - N/A   Mostly Cloudy
11:00 AM 51.8 °F 44.6 °F 76% 30.09 in 6.2 mi SSE 17.3 mph - N/A   Mostly Cloudy
11:30 AM 51.8 °F 44.6 °F 76% 30.06 in 6.2 mi South 23.0 mph - N/A   Mostly Cloudy
12:00 PM 53 °F 44 °F 62% 30.10 in 25 mi South 15.7 mph - -   Mostly Cloudy
12:00 PM 51.8 °F 44.6 °F 76% 30.09 in 6.2 mi South 15.0 mph - N/A   Mostly Cloudy
12:30 PM 51.8 °F 44.6 °F 76% 30.09 in 6.2 mi SSE 12.7 mph - N/A   Mostly Cloudy
1:00 PM 51.8 °F 44.6 °F 76% 30.06 in 6.2 mi SSE 13.8 mph - N/A   Mostly Cloudy
1:30 PM 53.6 °F 46.4 °F 77% 30.06 in 6.2 mi SSE 15.0 mph - N/A   Mostly Cloudy
2:00 PM 53.6 °F 46.4 °F 77% 30.06 in 6.2 mi SSE 15.0 mph - N/A   Mostly Cloudy
2:30 PM 53.6 °F 46.4 °F 77% 30.06 in 6.2 mi SE 11.5 mph - N/A   Mostly Cloudy
3:00 PM 53.6 °F 46.4 °F 77% 30.04 in 6.2 mi SE 10.4 mph - N/A   Mostly Cloudy
3:30 PM 53.6 °F 46.4 °F 77% 30.04 in 6.2 mi SSE 16.1 mph - N/A   Mostly Cloudy
4:00 PM 53.6 °F 46.4 °F 77% 30.04 in 6.2 mi SSE 16.1 mph - N/A   Mostly Cloudy
4:30 PM 53.6 °F 46.4 °F 77% 30.04 in 6.2 mi SSE 16.1 mph - N/A   Mostly Cloudy
5:00 PM 53.6 °F 46.4 °F 77% 30.04 in 6.2 mi SSE 13.8 mph - N/A   Mostly Cloudy
5:30 PM 53.6 °F 46.4 °F 77% 30.04 in 6.2 mi SSE 16.1 mph - N/A   Mostly Cloudy
6:00 PM 51.8 °F 46.4 °F 82% 30.04 in 6.2 mi SSE 17.3 mph - N/A   Mostly Cloudy
6:30 PM 51.8 °F 46.4 °F 82% 30.04 in 6.2 mi SSE 18.4 mph - N/A   Mostly Cloudy
7:00 PM 51.8 °F 46.4 °F 82% 30.04 in 6.2 mi SSE 17.3 mph - N/A   Mostly Cloudy
7:30 PM 51.8 °F 46.4 °F 82% 30.06 in 6.2 mi SSE 15.0 mph - N/A   Mostly Cloudy
8:00 PM 51.8 °F 46.4 °F 82% 30.06 in 6.2 mi SSE 17.3 mph - N/A   Mostly Cloudy
8:30 PM 51.8 °F 46.4 °F 82% 30.06 in 6.2 mi SSE 13.8 mph - N/A   Mostly Cloudy
9:00 PM 51.8 °F 46.4 °F 82% 30.06 in 6.2 mi SSE 15.0 mph - N/A   Mostly Cloudy
9:30 PM 51.8 °F 46.4 °F 82% 30.06 in 6.2 mi SSE 13.8 mph - N/A   Mostly Cloudy
10:00 PM 50.0 °F 46.4 °F 87% 30.06 in 6.2 mi ESE 15.0 mph - N/A   Mostly Cloudy
10:30 PM 50.0 °F 46.4 °F 87% 30.06 in 6.2 mi SE 11.5 mph - N/A   Mostly Cloudy
11:00 PM 50.0 °F 46.4 °F 87% 30.06 in - SE 8.1 mph - N/A   Clear
11:30 PM 50.0 °F 46.4 °F 87% 30.09 in - SSE 9.2 mph - N/A   Clear